, AZ

(GMT )
Fort Huachuca

Weather History for KALK - December, 2012

Change the Weather History Date:

Saturday, December 29, 2012

  Actual Average Record
Temperature  
Mean Temperature 40 °F -  
Max Temperature 55 °F - - ()
Min Temperature 26 °F - - ()
Degree Days  
Heating Degree Days 24    
Moisture  
Dew Point 17 °F    
Average Humidity 41    
Maximum Humidity 69    
Minimum Humidity 22    
Precipitation  
Precipitation 0.00 in - - ()
Sea Level Pressure  
Sea Level Pressure 29.98 in    
Wind  
Wind Speed 9 mph (ENE)    
Max Wind Speed 16 mph    
Max Gust Speed 23 mph    
Averages and records for this station are not official NWS values.
T = Trace of Precipitation, MM = Missing Value Source: NWS Daily Summary

Daily Weather History Graph

Daily Weather History Graph

Search for Another Location

Airport or City:

Trip Planner

Search our weather history database for the weather conditions in past years. The results will help you decide how hot, cold, wet, or windy it might be!

Date:

Astronomy

Dec. 29, 2012 Rise Set
Actual Time 7:20 AM MST 5:27 PM MST
Civil Twilight 6:53 AM MST 5:54 PM MST
Nautical Twilight 6:23 AM MST 6:24 PM MST
Astronomical Twilight 5:53 AM MST 6:54 PM MST
Moon 6:57 PM MST (12/29) 8:01 AM MST (12/29)
Length of Visible Light 11h 00m
Length of Day
10h 06m
Full, 98% of the Moon is Illuminated
Dec 29
Full
Jan 4
Last Quarter
Jan 11
New
Jan 18
First Quarter
Jan 26
Full

Hourly Weather History & Observations

Time (MST) Temp. Windchill Dew Point Humidity Pressure Visibility Wind Dir Wind Speed Gust Speed Precip Events Conditions
12:56 AM 28.9 °F 20.4 °F 16.0 °F 58% 30.04 in - East 9.2 mph - N/A   Clear
1:56 AM 28.0 °F 20.8 °F 17.1 °F 63% 30.04 in - East 6.9 mph - N/A   Clear
2:56 AM 28.0 °F 20.8 °F 18.0 °F 66% 30.05 in - ENE 6.9 mph - N/A   Clear
3:56 AM 27.0 °F 18.7 °F 16.0 °F 63% 30.05 in - ENE 8.1 mph - N/A   Clear
4:56 AM 26.1 °F 16.2 °F 17.1 °F 69% 30.04 in - East 10.4 mph - N/A   Clear
5:56 AM 28.0 °F 18.6 °F 17.1 °F 63% 30.06 in - NE 10.4 mph - N/A   Clear
6:56 AM 30.0 °F 20.0 °F 17.1 °F 59% 30.05 in - ENE 12.7 mph - N/A   Clear
7:56 AM 30.9 °F 22.8 °F 17.1 °F 57% 30.07 in - ENE 9.2 mph - N/A   Clear
8:56 AM 37.0 °F 29.3 °F 18.0 °F 46% 30.08 in - ENE 11.5 mph - N/A   Clear
9:56 AM 43.0 °F 35.4 °F 16.0 °F 34% 30.06 in - East 16.1 mph - N/A   Clear
10:56 AM 46.0 °F 40.2 °F 16.0 °F 30% 30.04 in - East 12.7 mph 23.0 mph N/A   Clear
11:56 AM 48.9 °F - 16.0 °F 27% 29.99 in - ENE 16.1 mph - N/A   Clear
12:56 PM 51.1 °F - 17.1 °F 26% 29.95 in - East 11.5 mph - N/A   Clear
1:56 PM 54.0 °F - 17.1 °F 23% 29.92 in - ENE 9.2 mph - N/A   Clear
2:56 PM 55.9 °F - 17.1 °F 22% 29.91 in - East 8.1 mph - N/A   Clear
3:56 PM 55.9 °F - 17.1 °F 22% 29.91 in - ENE 8.1 mph - N/A   Clear
4:56 PM 53.1 °F - 18.0 °F 25% 29.91 in - NNE 5.8 mph - N/A   Clear
5:56 PM 48.0 °F - 18.0 °F 30% 29.92 in - SW 4.6 mph - N/A   Clear
6:56 PM 46.9 °F - 17.1 °F 30% 29.93 in - Calm Calm - N/A   Clear
7:56 PM 46.9 °F - 17.1 °F 30% 29.92 in - North 4.6 mph - N/A   Clear
8:56 PM 45.0 °F - 18.0 °F 34% 29.91 in - Calm Calm - N/A   Clear
9:56 PM 39.9 °F 37.8 °F 19.0 °F 43% 29.90 in - WSW 3.5 mph - N/A   Clear
10:56 PM 43.0 °F 39.5 °F 17.1 °F 35% 29.88 in - NW 5.8 mph - N/A   Clear
11:56 PM 43.0 °F 38.8 °F 16.0 °F 34% 29.87 in - Variable 6.9 mph - N/A   Clear